Location: Moonridge Observatory
(39.2268°N, 77.7914°W)
Time: 21:51:26
(UTC-05:00)

CZ-2C R/B - Visible Passes

Search period start: 21 December 2014 00:00
Search period end: 31 December 2014 00:00
Orbit: 704 x 909 km, 98.1° (Epoch: 21 December)

Date Brightness Start Highest point End Pass type
(mag) Time Alt. Az. Time Alt. Az. Time Alt. Az.
22 Dec 5.8 17:23:14 10° NW 17:25:21 12° WNW 17:27:29 10° W visible
26 Dec 5.8 17:24:56 10° NW 17:26:57 12° WNW 17:28:59 10° W visible
30 Dec 5.9 17:26:41 10° NW 17:28:33 12° WNW 17:30:27 10° W visible
